カタログに戻る

STARLINK-5061

運用中通信VLEO
NORAD 54847·PAYLOAD·🇺🇸 United States

打ち上げ Dec 28, 2022 から Cape Canaveral Space Force Station

Loading…

次のパス (今後24時間)

TLE

最新Source: CelesTrak SupGP

元期: Sep 15, 2026, 02:25 UTC

1 54847C 22177AD  26258.10118056  .00031362  00000+0  11349-2 0  2584
2 54847  43.0019 120.5935 0001417 267.2263 263.2242 15.27593562    10

AllMySatでSTARLINK-5061をリアルタイム追跡

Download on the App Store